TimeEDT,TemperatureF,Dew PointF,Humidity,Sea Level PressureIn,VisibilityMPH,Wind Direction,Wind SpeedMPH,Gust SpeedMPH,PrecipitationIn,Events,Conditions,WindDirDegrees,DateUTC
12:53 AM,59.0,53.1,81,30.13,10.0,Calm,Calm,-,N/A,,Overcast,0,2013-10-06 04:53:00
1:53 AM,57.9,46.9,67,30.13,10.0,North,3.5,-,N/A,,Overcast,10,2013-10-06 05:53:00
2:53 AM,55.9,45.0,67,30.13,10.0,North,3.5,-,N/A,,Overcast,350,2013-10-06 06:53:00
3:53 AM,55.9,39.9,55,30.13,10.0,NE,3.5,-,N/A,,Overcast,40,2013-10-06 07:53:00
4:53 AM,55.9,41.0,57,30.14,10.0,North,5.8,-,N/A,,Overcast,350,2013-10-06 08:53:00
5:53 AM,55.0,42.1,62,30.15,10.0,NNE,3.5,-,N/A,,Overcast,20,2013-10-06 09:53:00
6:53 AM,54.0,44.1,69,30.16,10.0,Calm,Calm,-,N/A,,Overcast,0,2013-10-06 10:53:00
7:53 AM,55.0,42.1,62,30.17,10.0,Calm,Calm,-,0.00,,Overcast,0,2013-10-06 11:53:00
8:53 AM,55.0,39.9,57,30.20,10.0,Calm,Calm,-,N/A,,Overcast,0,2013-10-06 12:53:00
9:22 AM,53.6,41.0,62,30.21,10.0,SE,5.8,-,N/A,,Overcast,130,2013-10-06 13:22:00
9:53 AM,54.0,42.1,64,30.20,10.0,Calm,Calm,-,0.00,Rain,Light Rain,0,2013-10-06 13:53:00
10:53 AM,52.0,42.1,69,30.21,10.0,ESE,4.6,-,0.01,,Overcast,110,2013-10-06 14:53:00
11:53 AM,52.0,42.1,69,30.21,10.0,ESE,5.8,-,0.00,,Overcast,110,2013-10-06 15:53:00
12:53 PM,51.1,43.0,74,30.21,10.0,SE,4.6,-,0.00,Rain,Light Rain,130,2013-10-06 16:53:00
1:53 PM,51.1,46.0,83,30.19,7.0,Calm,Calm,-,0.00,Rain,Light Rain,0,2013-10-06 17:53:00
2:27 PM,50.0,46.4,87,30.18,2.0,Calm,Calm,-,0.08,Rain,Rain,0,2013-10-06 18:27:00
2:37 PM,50.0,46.4,87,30.19,5.0,Calm,Calm,-,0.08,Rain,Light Rain,0,2013-10-06 18:37:00
2:53 PM,51.1,46.0,83,30.18,9.0,Calm,Calm,-,0.09,Rain,Light Rain,0,2013-10-06 18:53:00
3:21 PM,50.0,48.2,94,30.19,6.0,Calm,Calm,-,0.09,Rain,Light Rain,0,2013-10-06 19:21:00
3:37 PM,50.0,48.2,94,30.18,1.8,Calm,Calm,-,0.15,Rain,Light Rain,0,2013-10-06 19:37:00
3:53 PM,50.0,48.0,93,30.18,3.0,Calm,Calm,-,0.18,Rain,Light Rain,0,2013-10-06 19:53:00
4:53 PM,51.1,48.0,89,30.17,10.0,Calm,Calm,-,0.00,,Overcast,0,2013-10-06 20:53:00
5:53 PM,52.0,48.0,86,30.17,10.0,Calm,Calm,-,0.00,,Overcast,0,2013-10-06 21:53:00
6:05 PM,51.8,48.2,88,30.17,10.0,Calm,Calm,-,N/A,,Overcast,0,2013-10-06 22:05:00
6:53 PM,51.1,48.9,92,30.17,10.0,Calm,Calm,-,N/A,,Overcast,0,2013-10-06 22:53:00
7:53 PM,51.1,48.9,92,30.16,10.0,Calm,Calm,-,N/A,,Overcast,0,2013-10-06 23:53:00
8:31 PM,51.8,48.2,88,30.16,6.0,Calm,Calm,-,N/A,,Overcast,0,2013-10-07 00:31:00
8:53 PM,51.1,48.9,92,30.16,4.0,Calm,Calm,-,0.01,,Overcast,0,2013-10-07 00:53:00
9:07 PM,51.8,48.2,88,30.16,4.0,Calm,Calm,-,N/A,,Overcast,0,2013-10-07 01:07:00
9:39 PM,51.8,48.2,88,30.15,3.0,Calm,Calm,-,N/A,,Overcast,0,2013-10-07 01:39:00
9:53 PM,51.1,48.0,89,30.15,4.0,Calm,Calm,-,N/A,,Overcast,0,2013-10-07 01:53:00
10:53 PM,51.1,48.9,92,30.14,8.0,Calm,Calm,-,N/A,,Overcast,0,2013-10-07 02:53:00
11:53 PM,52.0,48.9,89,30.13,10.0,Calm,Calm,-,0.01,,Overcast,0,2013-10-07 03:53:00